Weather History for Rapid City, SD

Change the Weather History Date:

Saturday, November 9, 2013

  Actual Average Record
Temperature  
Mean Temperature 39 °F 38 °F  
Max Temperature 50 °F 50 °F 75 °F (2001)
Min Temperature 27 °F 25 °F 2 °F (1966)
Degree Days  
Heating Degree Days 26 27  
Month to date heating degree days 254 228  
Since 1 July heating degree days 1049 990  
Cooling Degree Days 0 0  
Month to date cooling degree days 0 0  
Year to date cooling degree days 724 636  
Moisture  
Dew Point 26 °F    
Average Humidity 59    
Maximum Humidity 75    
Minimum Humidity 42    
Precipitation  
Precipitation 0.00 in 0.02 in 0.43 in (1984)
Month to date precipitation 0.32 0.20  
Year to date precipitation 21.08 15.54  
Snow  
Snow 0.00 in 0.20 in 5.80 in (1985)
Month to date snowfall 3.1 1.7  
Since 1 July snowfall 23.9 3.5  
Since 1 September snowfall 23.9 3.5  
Snow Depth 0.00 in    
Sea Level Pressure  
Sea Level Pressure 30.23 in    
Wind  
Wind Speed 8 mph (North)    
Max Wind Speed 25 mph    
Max Gust Speed 30 mph    
Visibility 10 miles    
Events      
T = Trace of Precipitation, MM = Missing Value Source: NWS Daily Summary

Daily Weather History Graph

Daily Weather History Graph

Search for Another Location

Airport:

Trip Planner

Search our weather history database for the weather conditions in past years. The results will help you decide how hot, cold, wet, or windy it might be!

Date:

Astronomy

Nov. 09, 2013 Rise Set
Actual Time 6:39 AM MST 4:31 PM MST
Civil Twilight 6:09 AM MST 5:02 PM MST
Nautical Twilight 5:34 AM MST 5:37 PM MST
Astronomical Twilight 5:00 AM MST 6:10 PM MST
Moon 12:15 PM MST (11/9) 11:07 PM MST (11/9)
Length of Visible Light 10h 53m
Length of Day
9h 52m
Waxing Crescent, 45% of the Moon is Illuminated
Nov 9
Waxing Crescent
Nov 9
First Quarter
Nov 17
Full
Nov 25
Last Quarter
Dec 2
New

Hourly Weather History & Observations

Time (MST) Temp. Windchill Dew Point Humidity Pressure Visibility Wind Dir Wind Speed Gust Speed Precip Events Conditions
12:52 AM 39.9 °F - 26.1 °F 58% 30.01 in 10.0 mi Calm Calm - N/A   Mostly Cloudy
1:52 AM 39.9 °F 37.8 °F 27.0 °F 60% 30.02 in 10.0 mi NE 3.5 mph - N/A   Overcast
2:52 AM 39.9 °F 37.8 °F 28.0 °F 63% 30.05 in 10.0 mi WNW 3.5 mph - N/A   Overcast
3:52 AM 41.0 °F 39.0 °F 27.0 °F 57% 30.07 in 10.0 mi NW 3.5 mph - N/A   Overcast
4:52 AM 37.9 °F - 28.0 °F 68% 30.12 in 10.0 mi Calm Calm - N/A   Overcast
5:52 AM 39.9 °F 35.1 °F 28.0 °F 63% 30.15 in 10.0 mi North 6.9 mph - N/A   Overcast
6:52 AM 41.0 °F 35.8 °F 27.0 °F 57% 30.17 in 10.0 mi NNW 8.1 mph - N/A   Overcast
7:52 AM 39.9 °F 36.7 °F 28.9 °F 65% 30.21 in 10.0 mi North 4.6 mph - N/A   Overcast
8:52 AM 43.0 °F 37.7 °F 28.0 °F 56% 30.23 in 10.0 mi North 9.2 mph - N/A   Overcast
9:52 AM 46.9 °F - 30.0 °F 52% 30.22 in 10.0 mi North 17.3 mph - N/A   Scattered Clouds
10:52 AM 48.0 °F - 30.9 °F 52% 30.23 in 10.0 mi North 18.4 mph - N/A   Mostly Cloudy
11:52 AM 46.0 °F 38.5 °F 30.9 °F 56% 30.24 in 10.0 mi North 19.6 mph - N/A   Overcast
12:52 PM 48.0 °F - 27.0 °F 44% 30.23 in 10.0 mi North 24.2 mph 27.6 mph N/A   Overcast
1:52 PM 45.0 °F 36.4 °F 25.0 °F 46% 30.24 in 10.0 mi North 23.0 mph 28.8 mph N/A   Scattered Clouds
2:52 PM 48.0 °F - 26.1 °F 42% 30.26 in 10.0 mi North 13.8 mph - N/A   Mostly Cloudy
3:52 PM 41.0 °F 37.1 °F 26.1 °F 55% 30.29 in 10.0 mi NNE 5.8 mph - N/A   Clear
4:52 PM 37.9 °F 34.4 °F 23.0 °F 55% 30.32 in 10.0 mi NNW 4.6 mph - N/A   Clear
5:52 PM 34.0 °F - 23.0 °F 64% 30.35 in 10.0 mi Calm Calm - N/A   Clear
6:52 PM 30.0 °F - 21.9 °F 72% 30.37 in 10.0 mi Calm Calm - N/A   Clear
7:52 PM 28.0 °F - 21.9 °F 78% 30.38 in 10.0 mi Calm Calm - N/A   Clear
8:52 PM 28.9 °F - 21.9 °F 75% 30.38 in 10.0 mi Calm Calm - N/A   Clear
9:52 PM 28.0 °F - 21.9 °F 78% 30.36 in 10.0 mi Calm Calm - N/A   Clear
10:52 PM 30.0 °F 23.2 °F 23.0 °F 75% 30.32 in 10.0 mi South 6.9 mph - N/A   Clear
11:52 PM 30.0 °F 23.2 °F 24.1 °F 79% 30.32 in 10.0 mi South 6.9 mph - N/A   Clear